This is the latest recevied weather packets stored in our database for station/object HB9FHL-13. If no packets are shown the sender has not sent any weather packets the latest 10 day(s).
| Time | Temp. | Humidity | Pressure | Rain* | Wind** | Luminosity | Snow |
|---|---|---|---|---|---|---|---|
| 1788153165 | 17.78° C | - | 1016.8 hPa | 3.3 mm | - | - | - |
| 1788153068 | 17.78° C | - | 1016.8 hPa | 3.3 mm | - | - | - |
| 1788152768 | 17.78° C | - | 1021.7 hPa | 3.3 mm | - | - | - |
| 1788152467 | 18.89° C | - | 1017.6 hPa | 3.3 mm | - | - | - |
| 1788152167 | 18.33° C | - | 1017.4 hPa | 3.3 mm | - | - | - |
| 1788151866 | 17.78° C | - | 1015.2 hPa | 3.3 mm | - | - | - |
| 1788151566 | 18.89° C | - | 1019.1 hPa | 3.3 mm | - | - | - |
| 1788151265 | 17.78° C | - | 1018.7 hPa | 3.3 mm | - | - | - |
| 1788150965 | 18.33° C | - | 1020.4 hPa | 3.3 mm | - | - | - |
| 1788150364 | 17.78° C | - | 1016.3 hPa | 3.3 mm | - | - | - |
| 1788150063 | 17.78° C | - | 1018.9 hPa | 3.3 mm | - | - | - |
| 1788149763 | 18.33° C | - | 1012.8 hPa | 3.3 mm | - | - | - |
| 1788149462 | 18.33° C | - | 1021.8 hPa | 3.3 mm | - | - | - |
| 1788149161 | 18.33° C | - | 1016.6 hPa | 3.3 mm | - | - | - |
| 1788148894 | 18.33° C | - | 1018.7 hPa | 3.3 mm | - | - | - |
| 1788148860 | 18.33° C | - | 1018.7 hPa | 3.3 mm | - | - | - |
| 1788148560 | 18.33° C | - | 1014.6 hPa | 3.3 mm | - | - | - |
| 1788148259 | 17.78° C | - | 1017.6 hPa | 3.3 mm | - | - | - |
| 1788147959 | 17.78° C | - | 1019.8 hPa | 3.3 mm | - | - | - |
| 1788147658 | 18.33° C | - | 1019.9 hPa | 3.3 mm | - | - | - |
| 1788147358 | 17.78° C | - | 1020.2 hPa | 3.3 mm | - | - | - |
| 1788147069 | 18.33° C | - | 1024.3 hPa | 3.3 mm | - | - | - |
| 1788146757 | 18.89° C | - | 1020.4 hPa | 3.3 mm | - | - | - |
| 1788146588 | 17.78° C | - | 1011.1 hPa | 3.3 mm | - | - | - |
| 1788146456 | 17.78° C | - | 1011.1 hPa | 3.3 mm | - | - | - |
* Rain since midnight (hover to see other rain measurements)
** Current wind speed in m/s (hover to see current wind gust speed)